Wind_Speed
9 9 9 10 11 11 12 12 12 13 13 14 14 15 15 16 17 18 18 19 20 20 20 20 20 21 22 22 23 24 25 27 27 27 28 29 29 27 25 24 24 24 23 23 24 24 25 26 25 24 24 24 23 22 21 20 21 22 20 16 14 14 13 12 11 12 14 16 18 19 21 24 27 25 21 21 21 21 24 25 26 28 24 21 29
9 10 11 11 11 12 13 13 14 14 14 15 15 16 16 17 18 19 20 21 22 22 23 23 22 22 23 23 24 24 25 26 27 27 29 29 28 27 26 24 23 23 22 22 23 23 24 25 25 24 23 23 23 21 20 20 20 21 19 16 14 13 13 12 10 12 13 14 17 19 21 24 25 24 20 19 19 20 22 24 24 26 25 20 21
6 8 11 12 12 13 14 14 15 15 16 16 17 17 18 19 19 20 22 23 23 24 24 24 24 24 24 24 24 25 25 25 26 30 33 31 29 27 26 26 25 23 21 21 22 22 23 24 24 23 22 22 22 21 19 19 19 20 18 16 14 13 13 11 9 11 12 14 16 18 21 22 23 23 21 19 19 19 21 23 23 24 26 22 18
8 6 9 11 13 14 14 15 16 16 17 17 18 19 20 20 21 22 23 24 25 25 25 25 25 24 24 24 24 25 26 26 28 32 34 31 27 26 26 27 26 25 21 20 20 21 22 23 23 22 21 21 22 20 19 18 18 18 17 15 13 12 12 10 9 10 12 13 15 17 19 20 21 22 22 20 19 19 20 22 22 23 25 24 19
12 10 9 10 12 14 15 16 16 17 18 19 20 20 21 22 22 23 24 24 25 25 26 26 25 24 23 24 25 26 26 27 29 32 32 28 25 25 26 27 28 27 23 19 19 20 21 22 22 22 21 21 21 20 18 17 17 17 16 14 12 12 11 10 8 9 11 13 14 16 17 18 19 21 21 20 19 18 19 19 20 21 23 24 22
13 14 12 12 12 14 15 17 17 17 18 20 21 21 22 22 22 23 23 24 25 25 26 26 26 24 24 25 28 29 28 27 28 31 31 29 25 24 25 27 28 29 24 19 18 19 20 20 20 21 20 20 20 19 17 16 16 15 15 13 12 12 10 9 8 9 10 12 13 15 16 16 18 19 20 19 18 17 17 17 18 20 21 23 25
12 14 15 15 15 15 16 17 18 18 19 20 21 22 22 23 23 24 24 25 26 26 27 28 27 24 24 27 29 31 32 28 26 28 31 30 28 26 26 27 28 29 25 19 18 19 18 17 18 19 19 18 19 18 16 16 15 14 14 12 12 11 9 8 8 8 10 11 12 14 15 15 17 18 18 18 17 16 16 17 17 20 21 22 25
12 14 15 16 17 18 19 20 20 21 21 22 23 24 25 25 25 26 26 27 28 28 28 30 31 27 26 28 30 33 36 31 24 26 30 30 29 28 27 27 27 28 25 22 22 20 16 15 17 18 18 18 18 18 16 14 14 13 12 11 11 11 8 8 7 7 9 10 11 13 14 14 16 17 16 16 16 15 16 17 18 20 21 22 25
13 16 17 18 19 20 22 24 25 25 25 25 25 25 26 27 28 28 29 29 29 29 29 30 32 31 29 31 33 35 37 34 28 27 29 30 29 27 27 27 27 28 27 26 25 20 14 13 15 17 17 17 17 17 16 14 13 12 11 10 10 10 8 8 7 6 7 8 10 12 12 13 15 15 14 15 16 15 15 16 17 20 22 22 24
14 17 19 20 21 21 22 24 26 27 28 28 28 28 28 28 29 30 30 31 31 31 31 31 32 32 31 32 34 36 36 35 32 31 30 30 30 28 27 26 26 26 28 28 25 19 14 12 13 15 16 16 16 16 15 14 12 11 10 9 9 9 7 7 6 5 5 7 8 10 11 12 14 13 13 15 15 14 14 15 16 19 21 22 24
17 18 20 20 21 23 24 24 25 26 26 28 30 31 31 31 32 32 31 32 32 32 33 33 34 34 33 32 34 35 36 35 34 34 33 32 32 31 28 27 25 24 25 25 23 18 13 12 13 14 14 15 15 14 14 12 11 10 9 7 7 7 5 6 6 5 5 7 8 8 9 11 13 12 12 14 14 12 12 14 15 17 19 21 24
19 20 21 21 21 23 25 26 26 27 27 28 29 31 32 33 34 35 35 35 35 36 36 36 35 35 35 34 34 34 36 37 35 34 34 35 37 36 31 27 25 22 21 21 20 17 13 12 14 14 13 13 14 13 12 11 10 9 8 7 6 5 4 4 6 6 5 6 8 8 9 10 11 10 11 12 13 12 11 12 14 15 18 21 23
20 19 19 20 21 24 27 28 29 30 31 31 32 33 34 34 34 36 37 37 38 39 39 39 39 39 39 39 37 35 37 39 37 33 33 35 37 36 34 30 24 20 19 18 17 16 13 12 13 14 13 12 12 12 11 10 9 8 8 7 6 4 2 2 4 5 5 6 8 8 9 9 9 10 11 12 12 12 11 12 13 15 18 21 22
20 19 19 21 24 27 29 31 32 33 34 34 35 35 35 35 35 36 37 37 38 39 39 39 39 40 41 41 39 35 36 37 36 33 33 33 33 32 33 33 27 20 18 16 14 13 12 11 13 13 13 12 11 11 10 9 9 8 7 7 6 3 1 1 2 3 3 4 7 8 8 9 8 9 11 12 11 11 11 12 13 14 16 18 20
21 23 23 24 27 30 32 34 35 36 36 36 36 36 36 37 36 36 36 36 37 37 37 36 36 37 37 38 37 34 32 32 32 32 32 32 32 30 30 33 31 27 22 15 11 11 11 11 12 12 12 11 11 10 10 9 8 7 6 6 6 3 1 1 1 2 3 3 5 7 8 9 9 9 10 10 10 10 11 12 13 13 14 15 16
23 26 27 28 30 32 33 34 35 35 35 35 34 33 34 35 34 34 33 34 34 35 34 33 33 34 34 34 33 32 30 29 30 31 31 31 31 29 28 30 31 29 25 17 11 10 10 10 12 12 10 10 9 9 9 8 8 8 6 4 5 5 2 1 2 3 3 3 4 5 7 8 8 7 8 9 9 9 11 12 13 13 13 13 14
24 27 29 31 32 33 33 33 34 34 34 34 33 32 32 32 32 32 32 32 32 32 32 31 31 32 33 33 32 31 30 29 29 30 30 30 30 28 26 27 27 27 25 19 12 9 9 11 12 12 10 8 7 7 7 7 7 8 7 4 3 4 3 1 2 4 3 3 5 5 6 7 7 7 7 8 8 8 9 10 12 13 14 13 14
26 28 31 33 34 34 35 35 35 34 33 33 33 33 32 31 31 31 32 32 32 31 31 30 29 31 31 31 32 33 32 29 27 27 28 29 29 27 24 24 24 24 25 23 15 9 9 12 13 11 10 8 6 5 6 6 6 7 8 6 3 2 3 1 2 4 4 3 5 6 6 6 7 7 7 7 7 7 8 9 11 13 14 14 15
28 30 32 34 35 35 35 34 33 33 32 32 32 32 32 32 32 32 32 32 32 32 31 30 29 30 30 30 31 32 32 29 27 26 27 27 27 26 24 22 22 23 25 25 19 12 10 12 13 11 10 8 6 4 4 5 5 5 6 7 4 2 2 0 3 5 5 4 4 5 5 6 7 7 7 8 8 8 8 8 9 10 11 13 14
30 32 34 35 35 35 33 32 32 31 31 32 32 32 33 34 34 33 32 32 32 31 30 30 29 28 29 30 30 29 28 28 26 25 25 24 25 25 24 23 22 22 23 24 21 16 12 13 15 15 11 7 6 4 3 4 3 3 5 6 4 3 2 2 5 5 4 4 4 4 5 5 6 6 7 8 9 8 7 7 7 8 9 11 12
33 34 35 35 35 33 32 32 32 32 32 33 33 34 35 35 35 35 34 32 31 30 29 28 28 27 27 28 28 26 26 26 25 25 24 24 23 23 23 24 24 23 24 24 22 19 16 17 19 17 12 8 5 3 3 3 2 2 3 5 5 4 2 4 8 8 6 6 6 6 5 5 5 6 7 8 8 7 6 6 6 7 7 8 10
34 35 35 34 33 32 32 33 33 34 35 35 36 37 37 37 36 36 35 34 32 30 29 28 27 25 25 25 24 25 25 25 24 24 24 23 22 22 22 23 25 24 24 24 23 21 20 22 22 18 12 8 5 2 2 2 3 3 3 4 4 4 3 4 9 10 8 8 8 8 8 7 6 6 6 8 8 7 6 6 5 6 6 7 8
34 34 34 33 32 32 32 33 34 35 36 36 36 37 36 36 36 35 35 34 33 32 31 30 28 24 22 22 23 24 25 25 24 24 23 22 22 22 21 22 25 26 26 24 23 22 21 24 24 17 13 10 5 3 2 3 4 4 3 3 4 4 3 4 9 10 8 8 8 8 9 8 7 7 7 8 8 6 6 6 5 5 6 6 6
34 33 33 32 32 32 33 34 35 35 36 36 35 34 34 33 32 32 32 32 32 33 32 32 30 27 23 22 22 23 25 25 23 23 23 22 22 22 22 23 24 26 26 25 24 21 21 25 25 16 13 10 7 4 3 4 4 4 3 3 3 4 3 5 9 9 7 8 9 8 8 8 8 9 9 8 7 6 6 6 5 5 6 6 7
33 32 32 32 32 33 34 34 34 34 34 34 34 33 32 31 30 30 31 30 31 32 31 31 31 30 29 26 21 21 24 25 23 22 22 22 22 22 23 23 24 24 24 25 25 22 22 25 23 14 13 9 7 5 4 5 5 4 3 3 3 3 3 7 9 8 8 9 9 8 9 9 10 11 10 8 7 7 7 6 6 6 6 6 7
32 32 32 32 33 34 34 33 33 33 32 32 32 32 32 32 31 31 30 30 30 30 30 30 29 28 29 29 24 20 23 25 24 22 22 23 23 23 23 24 24 23 22 23 24 22 22 23 17 10 11 8 7 6 4 5 5 4 3 3 4 3 4 7 8 8 8 8 8 7 9 10 11 12 11 9 8 8 7 6 6 6 5 6 5
32 32 32 33 33 33 33 32 32 32 31 31 31 31 31 31 31 30 29 30 30 30 30 29 26 24 25 26 24 21 21 25 25 23 22 23 23 22 22 23 24 23 21 20 20 20 21 18 9 9 11 8 7 7 5 5 5 5 3 3 4 3 4 8 8 7 7 8 7 7 9 10 11 12 12 10 8 8 8 6 5 4 4 5 5
32 32 32 32 32 32 32 32 31 30 30 30 29 30 30 30 30 30 30 31 31 31 30 28 26 24 24 24 23 20 19 22 24 24 22 22 21 21 22 23 23 23 22 20 18 19 19 14 6 9 10 7 7 8 7 6 6 5 3 3 4 3 6 9 8 7 7 7 6 7 10 11 11 11 13 11 9 9 9 6 4 3 3 4 5
32 32 32 32 31 31 30 30 30 29 29 29 28 28 28 30 31 31 32 32 32 31 30 28 26 25 25 26 25 21 18 18 21 23 23 23 23 23 24 24 23 23 24 22 20 19 16 9 6 10 12 9 8 10 10 7 6 5 3 3 4 4 8 10 10 9 8 7 6 7 10 12 11 11 13 13 11 10 8 6 4 4 3 3 5
31 31 31 31 31 30 29 28 28 28 28 28 28 28 28 29 30 32 32 32 32 31 31 29 27 26 27 27 26 24 21 18 19 21 22 24 25 25 25 25 24 24 24 23 22 20 14 8 8 13 15 11 10 12 11 7 6 5 3 3 3 5 7 10 11 11 9 7 8 8 9 11 12 12 13 14 12 10 8 6 4 4 4 5 5
30 31 30 30 29 29 28 28 27 27 28 29 30 31 31 31 30 31 32 32 31 31 32 30 28 27 27 28 27 26 24 21 20 20 21 22 23 25 25 25 25 25 24 23 22 20 14 8 10 15 15 12 11 13 12 8 6 5 4 3 2 4 6 7 10 13 13 11 11 11 11 11 11 12 14 16 14 11 10 8 5 4 6 8 8
30 30 29 28 28 28 27 27 27 28 29 31 32 33 34 34 34 33 33 32 31 31 31 31 29 28 28 28 27 27 25 23 21 20 20 20 21 22 23 23 23 23 22 20 21 20 15 10 12 16 15 12 12 14 12 9 7 6 4 2 2 3 5 6 8 13 16 14 13 13 12 11 10 11 14 17 16 12 11 9 7 6 8 10 10
29 28 28 27 27 27 27 28 29 30 31 33 34 36 37 38 38 38 37 35 33 31 29 28 28 29 29 27 26 26 25 24 23 21 19 19 19 20 21 20 19 19 19 17 17 19 17 13 14 16 15 13 13 15 14 10 8 6 5 3 3 3 3 4 9 12 13 12 13 13 13 12 9 10 14 17 17 15 13 10 9 9 11 11 12
27 27 27 27 27 27 28 29 31 32 34 35 37 39 40 41 42 42 41 40 38 35 31 27 24 25 27 26 25 24 24 24 23 22 20 19 18 18 19 18 16 16 17 15 15 17 18 15 15 16 14 13 14 15 15 11 8 8 7 5 5 6 4 4 8 11 11 11 11 11 13 13 11 11 15 17 17 16 14 11 10 12 13 13 13
25 25 26 26 27 28 30 31 33 35 37 38 40 41 43 43 44 45 46 45 44 42 38 32 25 21 23 24 23 21 22 24 24 22 21 20 18 16 17 18 16 14 14 13 13 16 17 16 15 14 12 15 15 15 16 13 9 8 8 6 6 7 6 6 9 10 10 11 10 11 14 15 13 13 16 18 16 15 14 13 13 13 13 13 14
24 24 25 26 28 30 31 33 36 37 39 40 42 44 45 47 48 49 48 48 46 44 41 37 30 22 21 22 21 20 20 22 23 23 22 20 17 15 16 15 13 11 11 11 11 12 14 16 15 12 14 17 16 16 17 13 9 9 10 9 8 8 7 7 9 8 10 12 11 13 15 15 14 17 20 20 17 14 13 14 15 15 14 13 14
24 25 26 27 29 31 33 35 37 39 41 42 44 46 48 50 50 50 48 47 45 43 40 36 29 21 17 19 20 19 19 21 22 22 22 19 15 14 14 13 10 10 11 10 10 11 13 15 14 14 18 19 17 18 18 14 11 11 12 11 10 10 8 6 6 6 9 12 13 14 15 13 15 20 22 20 17 15 13 14 14 14 13 12 12
24 25 27 28 30 32 34 35 38 40 42 44 46 48 50 51 50 48 45 43 41 39 36 31 24 18 15 16 17 15 16 19 20 21 21 19 15 12 13 12 10 9 9 10 12 14 14 15 15 17 19 19 17 19 19 16 15 16 16 13 11 10 6 5 5 4 6 10 14 16 15 14 16 21 22 19 17 16 15 15 14 13 12 12 12
24 26 28 29 31 33 34 36 38 40 43 45 47 49 51 51 48 43 40 38 37 35 32 28 23 18 16 16 16 14 13 16 20 21 21 19 14 12 13 12 10 10 11 11 13 14 13 14 17 17 18 18 18 19 20 18 16 18 18 15 11 9 6 6 6 5 5 9 14 17 16 15 18 23 23 20 17 16 16 16 15 13 11 11 12
25 26 28 30 31 33 35 37 40 42 44 46 48 51 51 49 44 38 35 34 33 31 29 27 24 19 17 17 17 17 14 13 18 20 20 17 14 13 14 13 12 12 12 10 10 10 11 15 17 16 15 17 18 19 20 18 16 17 17 13 9 8 8 6 5 5 6 10 15 18 17 16 20 25 26 22 19 17 16 15 14 12 11 11 12
25 27 29 31 33 35 37 40 42 44 46 48 50 51 50 46 41 36 33 32 31 29 27 26 23 21 18 17 18 20 18 11 15 19 17 14 13 13 14 15 15 13 11 9 9 9 9 11 14 13 14 17 19 20 21 17 15 16 17 13 9 8 9 6 3 3 6 10 15 18 18 17 21 26 28 24 21 19 16 15 14 13 12 12 13
26 28 30 32 35 37 40 42 43 45 46 48 50 50 48 43 38 34 32 31 31 30 27 25 23 21 19 17 17 19 18 12 12 18 17 13 12 12 13 16 17 14 12 11 10 8 7 9 12 13 15 18 20 22 21 17 15 16 17 14 10 8 8 6 4 3 4 9 14 17 17 17 21 27 28 26 23 19 17 15 15 14 14 14 14
27 29 32 34 37 39 41 42 43 45 46 49 50 49 46 41 36 34 33 31 30 29 27 26 24 23 20 18 17 18 17 12 11 19 19 15 13 12 13 16 17 14 13 13 13 10 9 11 14 14 17 20 21 23 22 18 15 17 17 14 10 8 9 8 5 3 3 6 12 16 17 18 22 27 29 27 24 21 19 16 15 15 15 15 15
28 31 33 35 37 39 40 42 43 44 46 49 50 47 42 38 35 34 33 32 30 28 27 26 26 25 23 20 18 17 16 13 11 18 22 18 15 14 15 17 16 14 13 15 14 11 11 13 15 16 19 22 23 24 22 18 16 16 16 13 10 10 11 8 4 1 1 5 11 16 18 19 23 26 28 27 25 23 21 19 17 17 17 17 16
29 31 34 36 38 39 41 42 43 44 46 48 47 42 38 36 34 33 34 33 31 30 28 26 26 25 24 22 20 17 15 14 11 16 24 23 17 15 17 19 16 13 14 15 13 11 12 15 16 16 21 24 25 25 22 18 17 17 15 13 12 12 12 8 3 0 1 5 11 16 18 20 23 26 27 27 25 23 23 21 19 18 19 19 17
30 32 34 36 38 40 41 41 43 45 46 47 44 39 36 34 34 33 34 33 32 31 29 27 26 25 23 22 20 15 13 13 11 12 23 25 20 17 20 21 16 12 12 13 12 12 13 15 14 17 23 25 26 26 23 18 17 16 15 14 14 14 13 9 5 2 3 6 12 17 20 22 24 25 26 27 25 23 23 23 20 18 19 20 19
30 32 35 36 38 39 40 41 43 45 47 45 42 37 35 34 34 33 33 32 31 29 28 26 25 23 21 20 17 12 10 11 9 9 18 22 19 18 22 22 17 12 12 13 12 12 13 13 12 18 24 26 27 26 22 18 17 16 14 14 15 15 13 9 7 4 4 6 11 17 21 23 24 24 24 25 24 22 23 24 22 19 18 19 20
31 33 35 36 37 38 39 41 42 45 46 44 39 35 34 34 32 31 31 31 30 28 27 25 23 20 18 16 12 8 7 8 7 8 14 16 15 17 21 23 20 14 12 12 11 11 12 11 11 19 26 27 27 26 22 18 17 16 15 15 15 14 12 9 8 6 5 6 11 17 20 21 22 23 23 23 22 21 22 24 23 20 17 18 20
31 33 34 36 37 38 39 41 43 45 45 42 38 35 34 33 30 28 29 30 30 28 26 23 20 17 14 11 8 6 6 6 5 10 13 13 13 16 21 25 24 19 14 11 10 11 11 8 10 19 27 28 27 26 22 19 18 17 16 15 15 13 12 11 9 6 5 7 10 15 19 21 21 22 23 22 22 22 22 22 22 20 18 19 21
31 32 34 35 37 38 39 41 43 45 44 40 36 35 34 33 30 27 27 29 28 26 24 21 18 15 11 7 4 4 4 4 6 11 12 12 13 17 20 23 23 21 16 12 11 11 10 8 12 21 27 28 27 26 23 20 18 17 16 14 14 14 13 12 10 7 7 7 9 12 17 20 21 21 22 22 22 22 22 22 21 21 20 19 21
30 32 34 35 36 38 39 40 43 44 43 39 35 34 34 33 30 26 26 28 27 24 22 20 15 12 9 4 3 3 3 2 6 11 12 12 14 16 17 18 20 20 16 13 11 10 9 9 16 24 28 28 28 27 23 20 18 17 15 15 15 15 13 12 10 8 8 8 8 9 13 17 19 21 22 22 21 21 22 22 21 21 20 20 21
Wind_Direction
343 341 343 345 343 344 344 342 340 338 337 336 335 335 335 333 333 332 331 332 331 329 329 327 327 328 327 328 330 331 334 335 335 334 332 332 332 332 331 329 329 330 330 332 334 338 342 346 348 348 350 350 348 352 356 357 359 359 359 2 5 12 21 26 28 28 25 13 2 3 0 358 2 6 10 10 7 14 21 19 21 25 30 45 65
337 332 333 338 336 337 338 335 336 334 333 333 331 331 331 329 329 328 327 327 326 326 325 324 323 323 323 325 326 328 332 332 333 333 330 327 326 328 329 328 327 326 328 330 331 335 341 345 346 346 348 348 347 352 355 354 358 360 359 4 6 12 24 29 29 32 30 17 5 2 1 1 4 7 13 15 13 16 21 22 21 24 32 44 61
333 331 327 330 331 331 332 330 331 330 329 329 327 326 326 325 325 325 324 324 323 323 322 320 320 319 320 323 324 325 328 327 330 333 330 324 320 322 325 326 326 325 325 327 330 334 338 343 344 343 345 348 346 350 354 352 357 0 1 6 8 13 27 30 29 32 27 16 9 4 3 6 9 12 17 19 18 20 24 23 22 26 35 48 64
324 327 325 325 324 325 325 325 325 325 325 325 324 323 323 322 322 322 322 322 322 321 320 319 318 317 318 320 321 323 323 321 326 332 331 327 322 320 322 324 326 327 325 325 328 331 334 339 342 341 343 347 346 349 352 351 356 0 2 7 7 10 27 32 27 29 23 16 13 7 5 12 18 20 21 20 20 25 28 25 24 30 38 49 67
321 322 323 321 320 320 320 320 321 322 321 321 322 321 321 320 321 321 321 321 320 319 318 317 317 317 317 318 320 321 319 318 324 330 332 331 326 322 325 328 330 330 326 323 326 326 328 336 341 340 341 346 347 348 350 350 355 1 2 6 5 5 22 35 30 25 21 17 14 9 10 18 24 24 22 21 24 30 34 30 27 35 42 49 62
318 318 318 316 316 315 316 318 320 321 319 319 320 319 319 319 318 317 317 317 317 317 317 317 317 316 316 317 319 319 317 316 322 328 331 331 326 324 329 332 331 330 327 322 320 319 323 335 341 339 340 345 346 346 348 349 354 0 1 4 3 2 19 40 36 28 25 20 14 10 15 24 27 25 22 23 29 36 38 38 38 43 49 53 60
314 314 314 314 312 310 312 315 316 317 317 316 315 315 315 314 314 314 314 314 315 316 317 316 314 313 314 316 317 316 314 311 317 326 329 328 326 326 330 331 327 327 326 317 310 311 320 336 341 337 339 344 346 345 346 347 352 359 360 2 3 2 21 46 39 33 31 22 16 15 20 28 28 25 27 28 32 38 42 45 49 52 55 58 61
309 306 307 308 308 309 312 313 313 313 313 312 312 313 313 312 313 315 315 315 315 315 316 315 314 316 317 316 314 314 312 309 313 324 327 326 325 326 327 325 323 324 322 313 308 310 320 336 340 337 338 342 345 344 344 346 350 355 358 2 3 4 24 49 42 36 35 23 20 23 24 29 28 27 34 38 36 40 45 47 53 59 61 62 63
307 305 307 307 309 311 313 315 316 315 314 313 313 313 313 314 315 317 317 316 315 315 315 314 315 317 318 315 312 314 316 314 315 320 320 321 322 322 322 321 320 321 319 317 319 317 317 333 339 337 337 341 345 344 343 347 348 352 357 2 5 6 25 47 41 35 41 31 25 30 32 36 37 35 43 47 40 40 47 48 55 64 66 67 67
308 308 310 311 313 314 313 316 317 316 317 318 318 316 316 315 316 316 316 315 314 314 314 313 313 313 313 311 311 314 317 316 315 314 313 316 317 315 315 316 316 316 317 323 329 325 317 328 337 336 336 339 343 343 343 347 345 347 356 2 6 8 23 48 46 36 47 45 37 38 40 45 49 47 48 50 44 42 50 53 58 66 68 70 70
312 313 313 313 315 318 318 319 319 318 319 321 320 319 319 318 316 315 314 312 311 311 311 311 310 309 309 307 308 311 311 311 313 313 310 311 311 308 308 310 310 311 316 325 333 327 318 325 331 334 336 336 340 343 344 347 344 345 353 2 7 8 18 52 55 42 52 57 49 46 46 51 60 59 52 54 52 49 53 57 61 67 70 71 72
310 313 314 315 318 321 322 322 322 321 320 319 318 317 317 316 314 314 313 311 310 310 311 309 307 307 306 304 306 308 306 306 310 312 310 309 308 306 305 304 303 307 313 323 330 326 319 319 322 328 335 335 339 343 342 345 346 344 351 3 11 8 5 50 61 45 46 59 55 49 51 56 65 68 60 57 58 56 58 62 65 71 74 73 72
309 312 315 317 320 322 323 321 319 318 316 315 313 311 311 310 309 311 312 310 310 311 310 309 308 308 306 305 306 306 304 305 309 310 310 309 308 307 305 299 297 302 308 315 321 320 315 312 315 322 329 332 337 340 337 340 344 341 349 4 12 8 351 44 72 52 38 56 58 51 54 61 69 73 68 62 62 63 63 64 65 69 74 75 72
312 315 317 318 321 322 323 320 317 316 315 313 311 310 309 308 309 310 309 308 308 309 309 309 308 308 307 307 309 308 305 305 307 307 307 307 308 309 306 301 296 295 297 302 310 312 307 305 308 314 322 326 332 338 336 338 341 336 341 358 9 16 351 335 79 65 43 56 63 58 61 69 73 76 73 68 66 66 64 64 64 66 73 78 76
315 317 318 320 322 323 322 321 318 318 316 315 315 313 312 311 311 310 308 306 305 306 307 306 306 306 306 308 311 312 310 308 305 302 301 303 306 308 308 305 302 296 290 290 299 303 298 297 300 305 314 319 326 335 335 332 336 330 327 350 9 21 13 271 144 90 50 42 65 71 74 76 74 76 79 76 73 73 72 69 65 64 70 79 83
319 319 319 321 322 320 320 319 317 317 316 316 315 313 311 311 310 309 307 305 304 305 305 305 303 303 305 307 309 311 313 311 305 300 299 300 302 306 308 309 307 304 300 295 293 294 288 285 289 294 300 308 317 330 331 327 331 326 318 338 9 9 352 263 154 110 70 49 67 80 84 85 80 76 82 83 80 81 81 76 71 67 68 74 81
318 317 318 320 319 318 318 318 317 318 318 317 317 315 314 313 311 309 309 308 308 308 307 306 304 303 304 306 306 308 310 311 306 302 300 300 302 305 308 308 308 309 307 297 285 283 280 271 272 279 286 293 305 322 326 324 326 324 320 323 349 1 345 279 157 120 103 73 70 75 79 86 86 82 85 89 89 91 89 84 78 73 70 72 77
315 315 317 318 317 318 320 319 319 320 320 319 319 319 318 316 313 312 313 313 313 313 312 309 306 304 304 305 305 307 310 312 311 307 304 303 304 306 306 306 305 308 307 297 282 272 267 264 264 269 275 281 293 316 320 318 322 326 327 321 308 333 344 296 151 122 122 107 86 83 82 86 92 90 89 95 98 97 94 89 84 79 75 75 76
314 315 317 318 318 319 320 319 320 321 320 320 320 319 318 317 316 316 316 316 317 317 316 313 310 308 306 305 306 308 311 314 315 311 307 305 307 307 307 305 303 305 306 301 292 279 264 260 260 258 260 269 282 302 308 308 320 330 332 331 320 311 329 328 137 122 126 131 110 97 94 100 107 100 93 99 104 100 98 96 92 86 81 81 81
316 317 319 319 319 320 320 320 321 320 319 319 319 318 318 318 319 319 319 319 319 319 318 316 315 313 309 307 310 312 312 314 314 313 310 308 309 310 308 306 304 302 302 301 297 288 273 264 259 250 243 249 263 283 301 301 312 322 325 335 335 309 309 125 138 134 133 149 146 124 110 113 121 119 111 112 114 111 110 109 101 89 81 82 84
320 320 320 320 320 321 321 321 321 319 319 320 321 321 321 320 320 320 320 320 320 320 320 318 316 314 309 308 310 312 312 313 312 312 311 309 310 311 307 304 302 299 297 298 298 295 287 279 272 257 238 224 231 262 298 290 280 285 305 331 334 303 273 149 153 158 164 178 180 165 151 141 138 139 134 128 126 124 125 123 112 98 84 82 85
321 321 321 321 321 322 322 321 322 322 323 324 324 323 322 321 321 321 320 322 323 323 322 320 317 314 309 306 308 309 310 311 311 312 313 311 310 309 306 302 299 296 295 296 301 305 302 296 287 266 233 210 205 232 276 269 249 249 275 318 323 296 261 176 167 169 173 185 189 179 171 166 157 154 149 140 133 131 133 132 128 122 109 96 96
321 321 321 321 322 323 323 324 325 325 325 325 325 324 323 322 322 322 323 325 326 326 324 321 319 314 308 304 304 305 306 306 307 310 311 309 309 307 305 301 297 295 296 298 303 310 312 306 296 268 222 197 182 198 248 249 232 235 255 296 303 290 267 193 175 173 175 185 189 181 175 171 167 166 159 146 140 141 141 139 141 145 134 119 121
322 322 321 322 323 325 325 326 326 325 325 325 324 323 322 323 324 325 326 325 324 323 321 318 317 315 310 302 298 298 299 300 302 304 304 305 307 306 303 301 298 298 299 300 300 306 311 309 298 265 214 186 167 176 235 250 228 227 246 274 286 287 257 186 174 175 182 192 194 186 175 170 170 171 164 151 144 147 146 138 137 140 136 130 133
322 322 322 324 325 326 326 326 326 325 325 325 324 323 323 325 326 325 323 321 319 317 316 314 312 312 309 305 298 290 289 292 296 298 299 301 303 301 301 302 303 305 306 304 301 302 308 311 300 260 210 183 161 170 226 251 230 220 234 256 276 276 218 182 178 182 193 201 201 190 180 177 175 174 172 159 147 144 142 135 132 133 135 139 140
321 323 324 326 326 326 326 326 326 326 326 326 326 325 325 325 325 323 322 320 318 316 314 313 311 308 306 307 307 297 285 285 290 292 294 298 297 295 297 301 304 307 310 309 307 304 306 310 301 244 200 176 158 174 222 245 231 222 225 244 271 268 200 178 180 185 195 207 208 189 178 180 179 176 174 167 153 144 138 132 133 137 145 154 158
322 325 326 326 326 326 326 327 328 328 328 327 326 325 323 322 321 322 322 321 320 318 317 315 314 309 305 306 311 309 297 291 289 287 289 294 293 291 293 297 302 307 308 308 308 305 303 306 291 214 190 168 159 181 213 235 232 226 219 240 275 267 183 168 173 182 196 214 215 183 169 178 180 174 171 168 158 148 142 133 127 134 153 158 158
325 327 327 326 327 327 328 329 329 328 327 326 324 322 320 319 321 322 323 322 322 322 321 320 316 311 306 304 308 312 309 300 292 285 282 283 283 284 289 294 297 301 303 302 299 295 296 299 269 206 193 176 175 191 203 222 229 220 215 246 268 239 176 164 166 178 192 208 205 172 166 176 178 169 166 166 161 155 153 149 140 138 153 159 156
326 326 326 326 328 329 330 330 329 327 325 323 322 321 323 324 326 326 325 324 324 323 321 320 315 308 302 300 300 304 308 303 296 288 279 273 272 276 282 288 291 294 298 298 292 284 282 280 249 219 205 193 193 196 196 213 225 216 215 238 237 198 169 161 165 178 189 195 186 170 171 177 177 171 168 168 165 162 161 163 161 153 146 153 162
326 326 327 328 329 330 330 329 327 325 323 323 324 325 328 330 330 328 326 325 323 319 315 314 311 306 299 294 292 294 297 300 300 293 282 274 273 273 274 276 281 286 288 290 289 283 270 247 230 226 218 211 205 195 191 203 220 219 225 234 214 185 172 169 174 180 183 184 181 179 179 176 174 173 171 167 166 165 162 165 177 171 152 148 154
327 328 329 330 330 330 329 327 325 325 326 329 330 330 331 331 331 329 327 325 321 315 311 308 306 302 297 293 290 289 290 293 296 296 290 280 274 272 270 269 271 275 280 287 291 284 266 236 229 233 232 230 213 194 186 193 207 212 224 237 214 188 184 183 180 178 180 187 190 186 181 172 170 174 173 169 168 167 164 171 188 178 151 143 142
328 329 330 330 330 328 326 326 328 331 333 334 333 332 331 331 330 329 328 326 321 316 311 307 302 296 292 292 293 292 290 289 289 292 295 289 278 272 270 269 269 271 276 286 291 283 266 243 235 235 235 230 212 192 182 188 201 199 200 220 222 201 198 200 190 182 184 193 197 190 180 171 171 178 176 170 168 168 170 179 187 167 148 143 139
329 329 329 328 327 326 328 332 335 336 336 335 334 333 333 332 331 330 328 326 323 318 312 305 299 294 290 289 290 290 290 289 286 287 292 293 285 276 271 270 271 270 274 285 291 282 269 256 249 246 237 223 207 191 180 185 195 184 169 183 226 242 232 199 185 182 185 196 204 197 184 176 177 181 176 169 167 172 182 186 176 159 151 147 142
329 329 327 327 329 332 335 338 338 337 337 336 335 335 334 332 331 329 327 326 323 321 316 308 299 292 288 286 284 284 286 286 285 286 289 291 290 281 271 267 265 265 271 284 290 281 269 261 265 266 248 219 203 190 180 182 190 177 160 168 210 241 260 215 186 183 187 199 209 200 185 183 188 184 174 166 166 175 184 181 165 157 155 152 147
327 327 327 330 335 339 340 339 338 338 337 337 336 334 333 332 331 331 330 328 326 324 321 316 307 294 286 283 281 280 280 280 282 284 285 287 288 281 270 264 261 261 269 281 289 287 277 265 266 264 235 208 200 190 180 181 187 174 158 170 215 242 258 234 208 196 192 197 200 187 178 182 189 181 169 163 165 174 178 169 158 157 157 156 153
326 328 332 337 340 341 340 340 339 338 337 336 335 335 334 335 335 334 332 330 328 326 323 321 317 306 291 283 279 275 272 273 277 280 282 284 285 279 268 261 259 262 268 273 282 289 282 269 259 237 208 201 199 188 179 178 180 165 158 179 224 262 273 241 217 203 193 191 188 180 178 180 181 175 168 164 165 169 168 163 160 157 156 158 160
330 334 339 341 341 340 340 339 338 337 336 336 336 336 337 337 337 335 333 332 331 330 329 328 327 320 302 288 283 277 271 268 271 275 278 280 282 276 262 250 250 260 266 265 266 271 273 268 253 222 203 200 195 184 177 174 169 161 158 178 221 259 270 238 217 201 190 189 186 181 180 180 176 172 169 165 163 162 159 161 162 157 154 159 162
336 339 342 342 341 340 339 338 337 337 338 338 338 338 338 338 337 336 335 336 338 339 340 340 341 338 322 308 302 293 277 267 265 268 270 272 275 269 250 237 237 250 255 253 258 265 270 265 248 221 205 201 193 182 176 171 167 164 162 175 215 244 241 208 211 211 188 188 188 183 181 181 177 172 166 162 161 161 159 160 163 159 154 156 158
340 341 342 341 340 339 338 337 338 338 339 339 339 339 339 339 337 336 337 341 343 344 343 345 348 346 336 326 322 316 294 268 261 264 267 268 267 256 238 222 217 234 247 251 257 264 267 257 242 224 207 200 192 181 175 172 172 175 176 182 209 234 227 208 219 220 189 183 184 181 181 182 176 170 165 161 161 163 161 161 161 156 149 150 158
342 341 341 340 338 338 337 338 339 340 340 340 340 339 339 338 336 336 337 339 340 340 338 337 337 336 333 327 324 326 319 280 256 260 267 267 259 245 227 208 203 226 247 250 248 255 259 251 241 225 204 196 191 181 177 176 175 179 185 189 202 223 230 228 226 213 190 182 180 180 183 184 176 169 167 165 163 163 161 156 150 143 140 151 164
341 341 340 339 338 338 339 340 341 341 341 340 340 339 338 336 335 334 334 333 332 332 332 329 326 323 323 319 314 320 326 299 250 246 256 263 256 239 217 200 197 214 235 238 235 244 254 251 243 224 199 193 191 182 178 178 175 175 183 188 194 213 230 239 239 214 196 185 179 181 186 185 176 171 171 170 165 163 160 153 146 143 147 155 161
341 341 340 339 339 341 342 342 342 341 340 339 339 339 338 336 334 333 332 329 328 327 326 327 326 324 321 315 306 309 320 308 246 231 236 249 253 239 214 197 192 201 217 224 224 225 227 238 238 217 194 192 192 182 177 179 177 176 183 190 189 198 218 232 241 237 209 188 180 181 186 185 177 174 175 173 168 166 168 161 153 151 153 154 154
342 341 340 341 343 344 343 341 341 340 339 339 340 339 338 336 334 332 330 328 327 326 324 324 325 323 321 317 306 300 308 307 253 226 224 234 243 235 209 193 195 205 210 210 214 215 217 230 233 212 190 190 191 182 177 180 181 181 188 194 188 192 211 223 230 245 221 186 178 179 183 184 179 177 179 177 172 173 178 173 161 156 158 158 157
343 342 342 344 344 343 342 341 340 340 340 340 341 340 338 335 333 331 329 327 325 324 322 319 318 317 317 317 309 297 298 302 263 224 217 223 234 225 202 194 203 211 204 201 210 215 214 225 229 208 188 188 189 182 178 183 185 186 190 189 183 195 213 216 211 241 226 175 172 174 178 182 180 180 181 181 177 179 183 179 169 164 164 165 166
343 342 344 344 343 342 341 341 340 340 341 342 341 340 337 335 332 330 328 325 322 320 316 311 310 309 309 311 310 298 290 296 278 225 213 219 227 214 197 196 205 206 196 199 209 212 214 227 228 203 184 185 186 181 180 186 188 188 188 181 178 198 215 210 184 123 233 177 172 170 171 177 182 183 184 185 184 185 185 183 179 174 169 168 173
342 343 344 344 342 341 341 340 341 342 343 343 342 340 338 335 332 329 327 324 322 320 317 312 308 306 305 306 307 297 283 292 292 231 212 215 217 201 191 195 202 202 199 203 209 211 219 231 223 192 182 186 185 180 181 189 190 189 187 179 177 197 212 199 164 165 219 191 176 170 170 176 183 186 187 189 190 190 188 186 184 179 173 172 175
342 345 345 343 342 342 341 341 343 343 344 344 343 341 338 336 335 332 332 331 330 328 326 321 316 311 306 303 302 292 278 286 287 226 205 208 205 190 186 191 196 199 203 210 215 220 225 229 209 185 182 186 185 181 182 189 191 191 189 181 182 199 210 193 163 175 214 198 180 176 176 180 184 186 187 190 192 192 189 188 187 184 179 177 177
345 346 344 342 342 342 342 343 344 345 345 345 343 341 340 339 339 340 343 346 344 339 335 331 326 318 310 302 294 280 271 280 269 208 192 195 192 181 181 188 193 197 203 210 221 227 228 224 201 183 181 184 185 182 183 187 190 191 190 185 187 199 207 191 169 174 201 200 188 184 184 185 184 183 183 185 186 185 185 186 188 188 185 181 179
347 345 343 343 343 344 344 346 347 347 347 346 343 342 342 342 342 345 350 353 352 348 343 339 334 326 315 303 287 265 268 275 237 195 188 187 179 174 180 188 193 197 202 209 221 226 225 218 192 180 181 183 183 182 184 188 189 189 190 189 189 195 198 189 175 174 194 203 196 190 188 188 187 184 182 180 179 180 182 184 188 190 188 185 182
346 345 345 345 346 346 347 348 349 349 348 346 345 345 345 344 343 345 349 350 351 352 352 348 342 334 323 305 268 257 278 269 206 190 187 182 176 178 185 190 193 195 202 214 224 223 220 205 181 177 180 182 181 182 185 188 188 187 188 188 189 192 192 184 176 180 196 204 204 199 194 190 187 187 186 183 181 182 182 181 183 188 189 186 185
346 347 348 348 348 348 349 349 351 351 349 348 348 348 347 345 344 346 348 348 348 352 357 356 352 345 336 310 242 243 284 247 193 185 181 178 182 188 189 187 186 189 200 214 217 212 205 190 179 177 179 180 180 183 187 187 185 185 185 185 189 194 189 178 174 185 198 203 210 212 201 190 185 186 190 190 187 185 181 178 179 185 187 186 186
Height
3109 3108 3107 3107 3106 3105 3104 3103 3102 3101 3100 3099 3098 3097 3096 3094 3093 3091 3090 3088 3087 3085 3083 3081 3080 3078 3076 3074 3072 3070 3068 3066 3064 3062 3060 3058 3056 3053 3051 3048 3046 3044 3043 3041 3039 3037 3035 3033 3031 3028 3025 3023 3021 3018 3015 3013 3011 3009 3008 3006 3004 3002 3001 3000 2999 2998 2997 2996 2994 2992 2990 2988 2985 2982 2980 2977 2973 2969 2967 2966 2964 2962 2959 2957 2953
3108 3107 3106 3106 3105 3104 3103 3102 3101 3100 3099 3098 3097 3096 3095 3093 3092 3090 3089 3087 3085 3083 3082 3080 3078 3076 3074 3072 3070 3069 3067 3064 3062 3061 3059 3056 3054 3052 3049 3047 3045 3043 3041 3040 3038 3036 3034 3033 3030 3028 3025 3023 3020 3018 3015 3013 3011 3009 3008 3006 3004 3003 3001 3001 3000 2999 2998 2996 2995 2993 2991 2988 2986 2983 2981 2978 2975 2971 2969 2968 2966 2964 2962 2960 2958
3107 3106 3105 3105 3104 3103 3102 3101 3100 3099 3098 3097 3096 3095 3093 3092 3091 3089 3087 3086 3084 3082 3080 3078 3076 3074 3073 3071 3069 3067 3065 3063 3061 3059 3057 3054 3052 3050 3048 3045 3043 3042 3040 3039 3037 3035 3033 3032 3030 3027 3025 3023 3020 3017 3015 3013 3011 3009 3008 3006 3005 3003 3002 3001 3001 2999 2998 2997 2995 2994 2992 2989 2987 2984 2982 2980 2977 2974 2971 2969 2968 2967 2965 2962 2961
3105 3105 3105 3104 3103 3102 3101 3100 3099 3098 3097 3096 3094 3093 3092 3090 3089 3087 3086 3084 3082 3080 3078 3076 3075 3073 3071 3069 3067 3065 3063 3061 3060 3058 3055 3052 3050 3048 3046 3044 3042 3040 3039 3037 3036 3034 3032 3031 3029 3027 3024 3022 3020 3017 3015 3013 3011 3009 3008 3007 3005 3004 3002 3002 3001 2999 2998 2997 2996 2994 2992 2990 2988 2986 2984 2982 2979 2976 2973 2972 2971 2969 2967 2965 2963
3103 3103 3103 3103 3102 3101 3100 3099 3098 3097 3095 3094 3093 3092 3090 3089 3087 3085 3084 3082 3080 3078 3076 3074 3073 3071 3069 3067 3065 3064 3061 3059 3057 3055 3052 3050 3048 3047 3045 3042 3040 3038 3037 3036 3035 3033 3031 3030 3028 3026 3024 3022 3019 3017 3015 3013 3011 3010 3008 3007 3006 3004 3003 3002 3001 3000 2999 2998 2997 2995 2993 2991 2989 2988 2986 2984 2981 2978 2976 2974 2973 2972 2970 2968 2966
3103 3102 3101 3101 3100 3099 3098 3097 3096 3095 3094 3093 3091 3090 3088 3087 3085 3083 3082 3080 3078 3076 3074 3072 3070 3069 3067 3065 3063 3061 3059 3057 3055 3052 3050 3048 3047 3045 3042 3040 3038 3037 3035 3034 3033 3031 3029 3028 3027 3025 3023 3021 3019 3017 3015 3013 3011 3010 3008 3007 3006 3005 3003 3002 3002 3001 2999 2999 2997 2996 2994 2993 2991 2989 2988 2986 2984 2981 2979 2977 2976 2975 2973 2972 2969
3102 3101 3100 3099 3098 3098 3097 3096 3095 3093 3092 3091 3089 3087 3086 3084 3083 3081 3080 3078 3076 3074 3072 3070 3068 3067 3065 3063 3061 3058 3055 3054 3052 3050 3048 3047 3045 3043 3040 3038 3037 3036 3034 3032 3031 3029 3028 3026 3026 3024 3022 3020 3018 3016 3014 3013 3011 3010 3008 3007 3006 3005 3004 3003 3002 3001 3000 2999 2998 2997 2995 2994 2992 2991 2989 2988 2986 2984 2982 2980 2979 2977 2976 2974 2972
3101 3100 3099 3098 3097 3095 3094 3094 3093 3091 3090 3088 3087 3085 3083 3082 3080 3079 3077 3075 3074 3072 3070 3067 3065 3063 3062 3060 3059 3056 3052 3050 3050 3048 3046 3044 3043 3041 3038 3036 3036 3034 3032 3030 3028 3027 3026 3025 3025 3023 3021 3019 3018 3016 3014 3013 3011 3010 3008 3007 3007 3006 3004 3003 3003 3002 3001 3000 2999 2998 2997 2995 2994 2992 2991 2990 2989 2987 2984 2982 2981 2980 2979 2978 2976
3100 3099 3097 3096 3095 3094 3092 3091 3090 3089 3088 3086 3085 3083 3081 3079 3078 3076 3074 3073 3071 3069 3067 3065 3063 3060 3059 3057 3055 3053 3050 3048 3047 3046 3044 3042 3041 3039 3037 3035 3034 3032 3030 3028 3026 3025 3024 3023 3023 3022 3020 3019 3017 3015 3014 3012 3011 3010 3008 3008 3007 3006 3005 3003 3003 3003 3002 3001 3000 2999 2998 2997 2995 2994 2992 2991 2991 2989 2987 2985 2984 2982 2982 2981 2979
3099 3098 3096 3095 3094 3093 3091 3090 3088 3086 3084 3083 3082 3080 3079 3077 3075 3073 3071 3070 3068 3066 3065 3063 3061 3059 3057 3054 3052 3050 3049 3047 3045 3043 3042 3040 3038 3037 3035 3033 3032 3030 3028 3026 3025 3024 3022 3021 3021 3021 3019 3018 3016 3015 3013 3012 3011 3010 3008 3007 3007 3006 3005 3004 3004 3004 3003 3001 3001 3000 2999 2998 2996 2995 2993 2993 2992 2991 2989 2988 2986 2985 2985 2984 2982
3097 3096 3095 3093 3092 3091 3090 3088 3087 3085 3083 3081 3079 3077 3075 3074 3072 3070 3069 3067 3065 3063 3062 3060 3057 3055 3054 3052 3049 3047 3045 3044 3042 3041 3039 3037 3035 3033 3031 3030 3029 3028 3026 3025 3024 3022 3021 3020 3020 3020 3019 3017 3015 3014 3013 3011 3011 3010 3008 3007 3007 3006 3006 3004 3004 3004 3003 3002 3001 3000 3000 2999 2997 2996 2995 2994 2994 2993 2992 2990 2989 2988 2987 2986 2985
3095 3094 3093 3092 3090 3089 3087 3086 3084 3083 3081 3079 3077 3075 3073 3071 3068 3066 3065 3063 3061 3059 3058 3056 3054 3052 3050 3048 3046 3044 3041 3040 3040 3039 3037 3034 3031 3029 3028 3027 3026 3025 3024 3023 3022 3021 3020 3019 3019 3018 3018 3016 3015 3013 3012 3011 3010 3009 3008 3007 3007 3006 3006 3005 3004 3004 3004 3003 3002 3001 3001 3000 2998 2997 2997 2996 2995 2995 2994 2993 2992 2991 2990 2989 2988
3094 3093 3092 3090 3089 3087 3085 3084 3082 3080 3078 3076 3074 3073 3071 3068 3066 3063 3061 3059 3057 3055 3053 3051 3049 3047 3045 3043 3043 3041 3038 3036 3036 3035 3034 3031 3028 3026 3025 3024 3023 3022 3021 3020 3020 3019 3018 3018 3017 3017 3016 3015 3014 3013 3012 3011 3010 3009 3008 3007 3006 3006 3006 3005 3004 3005 3005 3004 3003 3002 3001 3001 3000 2999 2998 2998 2997 2997 2997 2996 2995 2994 2992 2991 2991
3092 3091 3090 3088 3087 3085 3083 3081 3079 3077 3075 3073 3071 3069 3067 3065 3063 3061 3059 3056 3054 3052 3050 3048 3046 3044 3041 3039 3039 3038 3036 3034 3033 3032 3030 3028 3025 3024 3023 3021 3020 3019 3018 3017 3018 3017 3017 3016 3016 3016 3015 3014 3013 3012 3011 3010 3009 3009 3008 3007 3006 3006 3006 3005 3004 3005 3005 3005 3004 3003 3003 3002 3001 3001 3000 2999 2999 2999 2998 2998 2997 2996 2995 2994 2993
3090 3088 3087 3086 3084 3082 3080 3078 3076 3073 3071 3069 3067 3065 3062 3060 3059 3057 3055 3053 3051 3049 3047 3045 3043 3041 3039 3036 3035 3034 3033 3031 3030 3029 3027 3024 3022 3021 3020 3019 3017 3016 3014 3014 3015 3015 3014 3014 3015 3015 3014 3013 3012 3011 3010 3009 3009 3008 3008 3007 3006 3006 3006 3005 3005 3005 3006 3005 3005 3004 3004 3003 3003 3002 3001 3001 3001 3000 3000 3000 2999 2998 2998 2996 2996
3088 3085 3084 3083 3081 3079 3077 3075 3073 3071 3069 3066 3064 3062 3060 3058 3056 3054 3052 3050 3048 3046 3044 3042 3040 3038 3036 3034 3033 3032 3031 3030 3027 3026 3024 3021 3019 3018 3018 3016 3015 3014 3013 3012 3012 3012 3012 3012 3012 3013 3012 3011 3011 3010 3009 3009 3008 3007 3007 3007 3006 3006 3006 3005 3005 3005 3006 3006 3006 3005 3005 3005 3004 3004 3003 3003 3002 3001 3001 3001 3001 3000 3000 2999 2998
3085 3083 3082 3080 3079 3077 3075 3073 3070 3068 3066 3064 3061 3059 3057 3055 3053 3050 3048 3046 3045 3042 3040 3038 3036 3034 3032 3031 3030 3028 3028 3027 3025 3023 3021 3019 3017 3016 3015 3014 3013 3012 3012 3010 3009 3009 3010 3010 3009 3010 3011 3010 3009 3008 3008 3008 3007 3007 3006 3006 3006 3005 3005 3006 3005 3005 3006 3006 3006 3006 3006 3006 3006 3005 3004 3004 3004 3003 3003 3003 3003 3002 3002 3001 3000
3083 3082 3080 3079 3076 3074 3072 3069 3067 3065 3062 3060 3058 3056 3054 3051 3049 3047 3045 3042 3041 3039 3036 3034 3033 3031 3029 3028 3026 3025 3024 3023 3022 3020 3018 3016 3015 3013 3013 3012 3011 3010 3010 3008 3007 3006 3007 3007 3007 3008 3009 3009 3007 3007 3006 3006 3006 3006 3006 3005 3005 3005 3005 3005 3005 3005 3006 3007 3007 3007 3007 3007 3007 3007 3006 3005 3005 3005 3005 3004 3004 3004 3004 3003 3003
3082 3080 3078 3076 3074 3071 3069 3066 3064 3062 3059 3057 3055 3053 3050 3048 3046 3044 3041 3039 3037 3035 3033 3031 3029 3027 3025 3024 3023 3022 3020 3019 3018 3017 3015 3014 3013 3011 3010 3010 3009 3008 3007 3006 3006 3005 3005 3005 3005 3006 3006 3007 3006 3005 3005 3005 3005 3005 3005 3004 3004 3004 3004 3005 3005 3006 3006 3007 3007 3007 3007 3007 3008 3008 3007 3007 3006 3006 3006 3005 3005 3005 3005 3005 3005
3079 3077 3075 3073 3070 3068 3066 3063 3061 3059 3057 3055 3053 3050 3047 3045 3042 3040 3038 3036 3034 3032 3030 3028 3026 3025 3022 3020 3020 3019 3018 3016 3016 3014 3013 3011 3010 3009 3008 3007 3007 3006 3005 3004 3004 3004 3004 3003 3003 3003 3003 3004 3004 3004 3004 3004 3004 3004 3004 3004 3004 3003 3004 3004 3005 3006 3006 3007 3007 3007 3007 3007 3008 3009 3009 3008 3008 3008 3007 3006 3006 3006 3006 3006 3006
3076 3074 3072 3070 3067 3065 3063 3060 3058 3056 3054 3051 3049 3046 3044 3041 3039 3036 3034 3033 3031 3029 3028 3025 3024 3022 3020 3018 3016 3016 3015 3014 3013 3012 3010 3009 3007 3007 3006 3005 3004 3004 3002 3001 3002 3003 3002 3001 3001 3001 3000 3000 3001 3002 3003 3003 3003 3003 3003 3003 3003 3003 3003 3004 3005 3006 3006 3007 3007 3007 3007 3008 3008 3009 3010 3009 3009 3009 3008 3008 3008 3008 3008 3008 3008
3073 3071 3069 3067 3064 3062 3060 3057 3055 3052 3049 3047 3045 3042 3040 3038 3035 3033 3031 3029 3028 3026 3024 3023 3021 3019 3017 3016 3014 3013 3012 3011 3011 3009 3008 3006 3005 3004 3004 3002 3001 3000 3000 2999 3000 3001 3001 3000 2999 2999 2999 2998 2998 3000 3001 3002 3002 3002 3002 3002 3002 3002 3002 3003 3004 3005 3005 3006 3007 3007 3008 3008 3009 3010 3010 3010 3010 3010 3009 3009 3009 3009 3009 3009 3009
3070 3068 3066 3064 3061 3059 3056 3054 3051 3048 3046 3044 3041 3039 3037 3035 3032 3030 3027 3025 3023 3022 3020 3019 3017 3016 3015 3013 3011 3010 3009 3008 3008 3007 3005 3004 3003 3002 3002 3000 2999 2997 2997 2998 2998 2998 2998 2998 2997 2997 2997 2996 2997 2998 3000 3001 3001 3001 3001 3001 3002 3001 3001 3002 3003 3004 3005 3006 3006 3007 3008 3008 3009 3010 3011 3010 3010 3010 3010 3010 3010 3010 3010 3010 3010
3068 3066 3063 3061 3058 3056 3054 3051 3048 3046 3043 3041 3039 3036 3034 3032 3030 3027 3025 3022 3020 3019 3017 3015 3014 3013 3012 3011 3009 3007 3005 3004 3005 3004 3003 3002 3001 3000 2999 2998 2996 2995 2996 2996 2996 2995 2996 2995 2994 2994 2995 2994 2994 2996 2999 3000 3000 3000 3000 3000 3001 3001 3001 3001 3003 3003 3004 3005 3005 3006 3007 3009 3009 3010 3011 3011 3010 3011 3011 3011 3011 3011 3011 3011 3011
3065 3063 3060 3058 3055 3053 3051 3048 3046 3044 3041 3038 3036 3034 3031 3029 3027 3025 3023 3020 3018 3016 3014 3012 3010 3009 3007 3007 3006 3005 3002 3000 3001 3001 3000 2999 2999 2997 2996 2995 2994 2994 2994 2994 2993 2993 2993 2992 2991 2992 2993 2993 2993 2995 2997 2999 2999 2999 2999 2999 3000 3000 3000 3001 3002 3003 3003 3004 3005 3005 3007 3008 3009 3010 3011 3011 3011 3011 3011 3011 3011 3012 3012 3012 3013
3062 3060 3057 3055 3053 3050 3048 3046 3044 3041 3039 3036 3034 3031 3029 3026 3024 3022 3020 3018 3015 3013 3011 3009 3007 3006 3003 3002 3002 3002 2999 2996 2997 2998 2997 2996 2996 2995 2993 2993 2992 2992 2992 2992 2991 2991 2991 2990 2989 2990 2992 2992 2992 2993 2996 2997 2998 2998 2998 2999 2999 2999 3000 3000 3001 3002 3003 3004 3004 3005 3006 3008 3009 3010 3011 3011 3012 3012 3012 3012 3012 3013 3013 3013 3013
3059 3057 3054 3052 3050 3048 3045 3043 3040 3038 3036 3034 3032 3029 3027 3025 3022 3020 3017 3015 3012 3010 3008 3006 3004 3002 3000 2998 2998 2998 2996 2994 2993 2994 2994 2993 2993 2992 2991 2991 2990 2990 2990 2990 2990 2990 2989 2989 2989 2990 2990 2990 2990 2992 2995 2996 2997 2997 2998 2998 2998 2999 2999 3000 3000 3001 3002 3003 3004 3005 3006 3007 3008 3009 3011 3012 3012 3012 3013 3013 3013 3013 3013 3013 3013
3056 3054 3052 3050 3047 3045 3042 3040 3038 3036 3034 3032 3030 3028 3025 3023 3020 3018 3015 3012 3010 3007 3005 3003 3000 2998 2996 2995 2994 2994 2993 2991 2989 2990 2991 2991 2990 2989 2988 2988 2988 2988 2987 2988 2988 2988 2988 2987 2988 2989 2989 2989 2990 2992 2994 2995 2996 2996 2997 2997 2997 2998 2998 2999 3000 3001 3002 3003 3003 3004 3005 3007 3008 3009 3011 3012 3012 3013 3013 3013 3013 3014 3014 3014 3014
3054 3051 3049 3047 3045 3042 3040 3038 3036 3034 3032 3030 3028 3026 3024 3021 3018 3015 3013 3010 3007 3004 3002 2999 2997 2995 2993 2992 2991 2990 2990 2989 2986 2986 2986 2987 2987 2986 2986 2986 2986 2986 2985 2985 2985 2986 2986 2986 2986 2988 2988 2988 2988 2990 2993 2994 2995 2995 2996 2996 2997 2997 2998 2999 3000 3000 3001 3002 3002 3003 3005 3007 3008 3009 3011 3012 3012 3013 3014 3014 3014 3014 3014 3014 3014
3051 3049 3047 3044 3042 3040 3038 3036 3034 3032 3030 3028 3026 3024 3022 3020 3016 3013 3010 3007 3005 3002 2998 2996 2994 2991 2989 2988 2987 2986 2986 2986 2984 2983 2982 2982 2983 2983 2983 2983 2983 2983 2983 2983 2983 2983 2984 2984 2985 2986 2987 2987 2987 2989 2991 2993 2994 2994 2995 2995 2996 2997 2997 2998 2999 3000 3001 3002 3002 3003 3005 3006 3007 3009 3011 3012 3013 3013 3014 3014 3014 3014 3015 3015 3015
3048 3046 3044 3042 3040 3038 3037 3035 3033 3031 3028 3025 3023 3020 3018 3016 3014 3011 3008 3004 3001 2998 2995 2992 2990 2988 2986 2984 2983 2982 2982 2982 2981 2980 2979 2979 2979 2979 2979 2979 2980 2980 2980 2980 2981 2982 2982 2983 2983 2985 2986 2986 2987 2988 2990 2992 2993 2993 2994 2994 2995 2996 2997 2997 2998 3000 3001 3002 3002 3003 3004 3006 3007 3008 3010 3012 3013 3014 3014 3015 3015 3015 3015 3016 3016
3046 3044 3042 3040 3039 3037 3035 3033 3030 3028 3025 3022 3020 3017 3014 3011 3009 3007 3004 3001 2998 2994 2991 2988 2986 2984 2982 2980 2979 2978 2978 2978 2978 2976 2976 2975 2975 2975 2975 2976 2976 2976 2977 2978 2979 2979 2980 2981 2982 2983 2984 2985 2985 2987 2989 2990 2992 2993 2993 2994 2995 2996 2996 2997 2997 2999 3000 3001 3001 3003 3004 3006 3007 3008 3010 3011 3013 3014 3014 3015 3015 3015 3016 3016 3017
3044 3042 3040 3039 3037 3035 3032 3030 3027 3024 3022 3018 3015 3012 3009 3005 3002 3000 2998 2996 2993 2990 2987 2984 2981 2979 2977 2976 2975 2974 2974 2974 2973 2972 2972 2971 2971 2971 2972 2973 2973 2974 2974 2976 2977 2977 2978 2979 2980 2981 2982 2983 2984 2986 2988 2990 2991 2992 2992 2993 2994 2995 2995 2996 2997 2998 2998 2999 3000 3002 3004 3006 3007 3008 3009 3011 3013 3014 3014 3015 3016 3016 3017 3017 3018
3042 3040 3038 3036 3034 3032 3029 3026 3023 3021 3018 3015 3011 3008 3005 3001 2998 2994 2991 2988 2986 2984 2982 2980 2977 2974 2972 2971 2970 2970 2969 2969 2968 2968 2968 2968 2968 2968 2969 2969 2970 2971 2972 2974 2975 2975 2976 2977 2978 2979 2980 2982 2983 2985 2987 2989 2990 2991 2992 2993 2995 2995 2995 2996 2997 2997 2998 2999 2999 3001 3004 3006 3007 3008 3009 3011 3013 3014 3015 3016 3016 3017 3017 3018 3018
3041 3039 3037 3034 3031 3029 3026 3023 3020 3017 3014 3011 3008 3004 3001 2997 2993 2989 2985 2981 2978 2975 2973 2972 2971 2969 2967 2965 2965 2965 2964 2964 2963 2963 2964 2964 2964 2965 2966 2966 2967 2969 2971 2973 2974 2974 2974 2975 2976 2978 2979 2981 2983 2984 2986 2988 2989 2990 2991 2993 2994 2995 2995 2996 2996 2997 2997 2998 2999 3001 3003 3005 3007 3008 3009 3011 3013 3014 3015 3016 3016 3017 3018 3019 3019
3039 3037 3035 3032 3029 3026 3024 3020 3017 3014 3011 3008 3004 3000 2996 2992 2988 2983 2979 2975 2972 2968 2966 2964 2963 2962 2961 2959 2959 2959 2959 2959 2959 2959 2960 2960 2961 2962 2963 2964 2965 2967 2969 2971 2972 2973 2973 2974 2975 2976 2978 2979 2981 2983 2985 2987 2989 2990 2991 2992 2994 2995 2995 2995 2996 2996 2996 2997 2998 3000 3003 3005 3006 3008 3009 3011 3013 3014 3015 3016 3017 3018 3019 3020 3020
3037 3034 3032 3029 3027 3024 3021 3018 3015 3012 3008 3004 3000 2996 2992 2987 2983 2979 2975 2971 2967 2963 2960 2958 2957 2956 2955 2954 2953 2954 2954 2955 2955 2956 2956 2957 2958 2959 2960 2962 2964 2966 2967 2969 2970 2971 2971 2972 2973 2974 2976 2978 2980 2982 2984 2987 2988 2990 2991 2992 2993 2994 2995 2995 2995 2995 2996 2996 2998 3000 3003 3004 3006 3007 3009 3011 3013 3014 3016 3017 3018 3019 3020 3021 3022
3034 3031 3029 3027 3024 3022 3019 3016 3013 3009 3005 3001 2997 2992 2988 2984 2979 2975 2971 2967 2964 2960 2958 2955 2954 2953 2951 2950 2950 2951 2951 2951 2952 2952 2953 2954 2955 2956 2958 2960 2962 2964 2966 2967 2968 2968 2969 2970 2972 2973 2974 2977 2979 2981 2984 2986 2988 2990 2991 2991 2993 2994 2994 2994 2994 2995 2995 2996 2997 3000 3002 3004 3006 3008 3010 3012 3014 3015 3016 3017 3019 3020 3021 3022 3023
3032 3029 3027 3025 3022 3020 3017 3013 3010 3006 3002 2997 2993 2989 2984 2980 2976 2972 2968 2965 2962 2959 2957 2955 2953 2952 2950 2949 2948 2948 2949 2949 2949 2949 2949 2951 2952 2953 2955 2958 2960 2962 2964 2965 2966 2966 2967 2969 2970 2971 2974 2976 2978 2981 2983 2985 2987 2989 2990 2991 2993 2993 2993 2994 2994 2995 2995 2996 2997 2999 3002 3004 3006 3008 3011 3013 3014 3016 3017 3018 3019 3021 3022 3023 3024
3030 3028 3026 3023 3021 3017 3014 3010 3006 3002 2998 2994 2989 2985 2981 2977 2973 2970 2966 2963 2961 2958 2956 2954 2952 2951 2950 2948 2947 2946 2946 2946 2946 2946 2947 2948 2950 2951 2952 2955 2958 2961 2962 2963 2964 2965 2966 2967 2969 2971 2973 2976 2978 2981 2983 2985 2987 2989 2990 2991 2992 2993 2993 2993 2994 2995 2995 2996 2997 2999 3002 3004 3006 3008 3011 3013 3014 3016 3018 3019 3020 3022 3023 3025 3025
3028 3026 3024 3021 3018 3014 3011 3007 3002 2998 2994 2991 2986 2982 2978 2974 2970 2967 2964 2961 2959 2957 2955 2952 2950 2949 2948 2947 2945 2945 2944 2944 2943 2944 2944 2946 2947 2948 2950 2953 2956 2958 2960 2961 2963 2964 2965 2966 2968 2970 2972 2975 2977 2980 2982 2984 2986 2988 2989 2990 2992 2993 2993 2993 2994 2995 2995 2996 2997 2999 3002 3004 3006 3009 3011 3013 3015 3017 3019 3020 3021 3023 3024 3025 3026
3026 3024 3021 3018 3015 3011 3007 3003 3000 2996 2992 2988 2984 2980 2975 2971 2967 2964 2962 2959 2956 2954 2952 2950 2949 2947 2946 2945 2943 2943 2942 2942 2942 2942 2943 2944 2946 2947 2949 2951 2954 2956 2958 2960 2961 2963 2964 2965 2967 2969 2971 2974 2977 2979 2982 2984 2986 2988 2989 2990 2991 2993 2992 2992 2993 2995 2995 2996 2997 2999 3002 3004 3006 3009 3011 3013 3015 3018 3019 3021 3022 3023 3025 3026 3027
3024 3021 3018 3015 3012 3008 3005 3001 2997 2994 2990 2985 2981 2976 2971 2967 2964 2962 2959 2956 2954 2951 2950 2948 2946 2945 2944 2942 2941 2940 2940 2940 2940 2940 2940 2942 2944 2946 2948 2950 2952 2955 2956 2958 2960 2961 2963 2964 2966 2968 2970 2973 2976 2978 2981 2983 2985 2987 2988 2989 2991 2993 2992 2992 2993 2995 2996 2996 2997 2999 3002 3004 3006 3008 3010 3013 3015 3018 3020 3021 3023 3024 3026 3027 3028
3022 3019 3016 3013 3010 3006 3003 2999 2995 2991 2987 2982 2978 2973 2969 2965 2962 2959 2957 2954 2951 2949 2947 2945 2944 2942 2941 2940 2939 2937 2937 2937 2937 2937 2938 2940 2942 2945 2947 2948 2951 2953 2955 2956 2958 2960 2962 2963 2964 2966 2969 2972 2975 2978 2980 2982 2984 2986 2987 2989 2991 2992 2992 2992 2993 2995 2996 2997 2998 3000 3002 3004 3006 3008 3010 3013 3015 3017 3020 3022 3023 3025 3026 3028 3029
3020 3017 3014 3011 3008 3004 3001 2997 2993 2989 2985 2980 2975 2971 2967 2964 2960 2957 2954 2951 2949 2946 2944 2942 2941 2939 2938 2937 2936 2935 2934 2934 2934 2935 2936 2938 2940 2943 2945 2947 2949 2952 2953 2955 2957 2959 2960 2961 2963 2965 2968 2972 2975 2977 2979 2981 2983 2985 2987 2989 2990 2991 2991 2991 2993 2995 2996 2997 2998 3000 3002 3004 3006 3008 3010 3012 3014 3017 3019 3022 3024 3025 3027 3028 3030
3018 3015 3012 3009 3006 3002 2999 2995 2991 2987 2982 2978 2973 2969 2965 2962 2959 2955 2952 2949 2946 2943 2941 2939 2937 2936 2934 2933 2932 2932 2931 2931 2931 2932 2934 2936 2939 2942 2944 2946 2948 2951 2952 2954 2956 2958 2959 2960 2962 2965 2968 2971 2974 2976 2979 2981 2983 2985 2986 2988 2990 2991 2991 2991 2994 2996 2997 2998 2999 3000 3002 3004 3005 3007 3009 3012 3014 3016 3019 3021 3024 3026 3027 3029 3030
3016 3013 3010 3007 3004 3000 2996 2993 2988 2984 2979 2975 2971 2967 2963 2960 2957 2953 2950 2946 2943 2939 2937 2935 2933 2932 2931 2930 2930 2929 2929 2929 2930 2930 2932 2935 2937 2940 2943 2945 2948 2950 2952 2954 2955 2957 2958 2959 2962 2965 2968 2971 2974 2976 2978 2980 2982 2984 2986 2988 2990 2991 2991 2991 2994 2996 2997 2998 2999 3000 3001 3003 3005 3007 3009 3011 3013 3016 3018 3021 3023 3026 3027 3029 3031
3015 3012 3009 3006 3002 2998 2995 2991 2986 2982 2977 2972 2969 2965 2962 2958 2955 2951 2947 2944 2940 2937 2934 2932 2930 2929 2928 2928 2927 2928 2928 2929 2929 2930 2932 2934 2936 2939 2942 2945 2947 2949 2951 2953 2955 2956 2957 2959 2961 2964 2967 2970 2973 2976 2978 2980 2982 2984 2986 2987 2989 2991 2991 2992 2994 2996 2997 2998 2999 3000 3001 3003 3005 3007 3009 3011 3014 3016 3018 3020 3023 3025 3027 3029 3031
3013 3010 3007 3004 3000 2997 2993 2989 2984 2980 2975 2971 2967 2963 2960 2956 2953 2949 2946 2942 2938 2935 2932 2930 2928 2927 2926 2926 2926 2927 2927 2928 2929 2930 2932 2934 2936 2939 2941 2944 2946 2948 2951 2953 2954 2955 2956 2958 2961 2963 2966 2970 2973 2976 2978 2979 2981 2983 2985 2987 2989 2991 2991 2992 2993 2995 2997 2998 2998 2999 3001 3003 3005 3007 3009 3011 3014 3016 3018 3020 3023 3025 3027 3029 3030
3012 3009 3006 3002 2998 2995 2991 2987 2982 2978 2974 2969 2965 2962 2958 2954 2951 2948 2944 2941 2938 2934 2931 2929 2927 2926 2926 2926 2926 2927 2927 2928 2929 2930 2932 2935 2936 2938 2940 2943 2945 2948 2950 2952 2953 2954 2956 2958 2961 2963 2966 2969 2973 2975 2977 2979 2981 2983 2985 2987 2988 2990 2991 2992 2993 2995 2997 2998 2998 2999 3001 3003 3005 3007 3010 3012 3014 3015 3018 3020 3022 3024 3026 3028 3030
3011 3007 3004 3001 2997 2994 2989 2985 2981 2977 2972 2968 2964 2960 2956 2953 2950 2946 2943 2940 2937 2934 2931 2928 2927 2927 2926 2926 2926 2927 2928 2928 2929 2931 2933 2935 2937 2938 2940 2943 2946 2948 2950 2951 2953 2954 2957 2959 2961 2963 2966 2969 2972 2975 2977 2979 2981 2983 2985 2986 2988 2989 2991 2992 2993 2994 2996 2997 2998 2999 3000 3003 3005 3007 3009 3011 3013 3015 3018 3020 3022 3024 3025 3027 3030